TimeHST,TemperatureF,Dew PointF,Humidity,Sea Level PressureIn,VisibilityMPH,Wind Direction,Wind SpeedMPH,Gust SpeedMPH,PrecipitationIn,Events,Conditions,WindDirDegrees,DateUTC
12:53 AM,73.0,51.1,46,29.94,10.0,East,3.5,-,N/A,,Clear,80,2014-01-01 10:53:00
1:53 AM,72.0,-9999,N/A,29.93,10.0,Calm,Calm,-,N/A,,Mostly Cloudy,0,2014-01-01 11:53:00
2:53 AM,73.0,-9999,N/A,29.92,10.0,Calm,Calm,-,N/A,,Clear,0,2014-01-01 12:53:00
3:53 AM,70.0,64.0,81,29.91,10.0,East,3.5,-,N/A,,Clear,80,2014-01-01 13:53:00
4:53 AM,71.1,64.0,78,29.91,10.0,East,4.6,-,N/A,,Clear,80,2014-01-01 14:53:00
5:53 AM,71.1,64.0,78,29.92,10.0,Calm,Calm,-,N/A,,Partly Cloudy,0,2014-01-01 15:53:00
6:53 AM,72.0,-9999,N/A,29.93,10.0,East,3.5,-,N/A,,Clear,100,2014-01-01 16:53:00
7:53 AM,73.9,-9999,N/A,29.94,10.0,ESE,4.6,-,N/A,,Scattered Clouds,120,2014-01-01 17:53:00
8:53 AM,78.1,46.9,33,29.96,10.0,SE,4.6,-,N/A,,Clear,130,2014-01-01 18:53:00
9:53 AM,79.0,60.1,52,29.97,10.0,Calm,Calm,-,N/A,,Clear,0,2014-01-01 19:53:00
10:53 AM,81.0,54.0,39,29.96,10.0,WSW,6.9,-,N/A,,Clear,250,2014-01-01 20:53:00
11:53 AM,80.1,55.0,42,29.94,10.0,WSW,8.1,-,N/A,,Clear,250,2014-01-01 21:53:00
12:53 PM,81.0,55.9,42,29.91,10.0,SW,8.1,-,N/A,,Clear,230,2014-01-01 22:53:00
1:53 PM,81.0,55.9,42,29.88,10.0,WSW,8.1,-,N/A,,Clear,240,2014-01-01 23:53:00
2:53 PM,81.0,55.9,42,29.87,10.0,West,9.2,-,N/A,,Clear,270,2014-01-02 00:53:00
3:53 PM,80.1,55.9,43,29.87,10.0,WNW,5.8,-,N/A,,Overcast,290,2014-01-02 01:53:00
4:53 PM,79.0,55.9,45,29.88,10.0,NNW,3.5,-,N/A,,Mostly Cloudy,330,2014-01-02 02:53:00
5:53 PM,78.1,61.0,56,29.89,10.0,WNW,4.6,-,N/A,,Clear,300,2014-01-02 03:53:00
6:53 PM,77.0,64.0,64,29.90,10.0,West,4.6,-,N/A,,Clear,280,2014-01-02 04:53:00
7:53 PM,77.0,66.0,69,29.93,10.0,NW,3.5,-,N/A,,Clear,310,2014-01-02 05:53:00
8:53 PM,75.0,62.1,64,29.94,10.0,NE,3.5,-,N/A,,Clear,40,2014-01-02 06:53:00
9:53 PM,75.0,61.0,62,29.94,10.0,NE,3.5,-,N/A,,Clear,50,2014-01-02 07:53:00
10:53 PM,73.9,60.1,62,29.93,10.0,NE,4.6,-,N/A,,Clear,40,2014-01-02 08:53:00
11:53 PM,73.9,59.0,59,29.92,10.0,ENE,5.8,-,N/A,,Partly Cloudy,70,2014-01-02 09:53:00